Location: Unspecified
(0.0000°N, 0.0000°E)
Time: 15:34:34
(UTC+02:00)

ARIANE 5 R/B - Visible Passes

Search period start: 21 October 2014 00:00
Search period end: 30 October 2014 23:00
Orbit: 546 x 35674 km, 7.2° (Epoch: 18 October)

Date Brightness Start Highest point End Pass type
(mag) Time Alt. Az. Time Alt. Az. Time Alt. Az.
21 Oct 7.9 00:57:06 10° W 02:46:22 74° W 10:55:40 10° E visible
21 Oct 8.4 21:55:34 10° WSW 04:51:18 86° NNE 07:56:39 10° E visible
22 Oct 5.7 18:58:51 10° WSW 19:04:11 62° S 19:46:04 10° E visible
24 Oct 9.7 03:31:31 10° W 05:05:24 34° W 09:07:43 10° W visible
25 Oct 8.4 00:14:49 10° W 02:06:45 83° WSW 10:14:54 10° E visible
25 Oct 8.5 21:14:41 10° WSW 04:12:33 82° NE 06:14:48 10° E visible
26 Oct 10.4 21:11:49 10° E 01:22:53 35° E 02:58:40 10° E visible
28 Oct 6.3 10:46:58 10° W 11:25:37 72° N 11:30:45 10° E visible
28 Oct 8.8 22:32:58 10° W 01:17:40 90° SSW 08:34:02 10° E visible
29 Oct 8.7 19:33:56 10° WSW 03:39:41 75° ENE 05:32:34 10° E visible
30 Oct 11.5 21:34:29 10° E 23:00:00 20° E 23:00:00 20° E visible
